Wind_Speed
50 49 47 44 42 41 40 40 41 41 42 42 43 44 45 46 46 47 47 47 47 47 47 48 49 49 50 50 50 51 51 52 53 53 54 54 54 54 55 56 56 57 57 58 59 60 61 61 61 62 62 63 63 64 64 65 66 66 66 68 70 71 69 68 68 70 71 72 73 73 74 75 77 78 79 80 81 82 83 85 85 83 83 84 87 90 90 90
52 51 49 47 45 44 43 42 42 42 43 44 44 44 44 44 44 45 46 48 48 48 49 49 49 50 51 52 52 52 52 52 52 53 53 53 53 54 54 55 56 56 56 57 58 59 60 60 61 61 62 63 64 64 65 66 66 67 69 71 73 73 71 71 72 73 73 74 76 76 76 77 79 80 81 83 84 85 87 90 88 87 87 89 92 94 93 93
54 53 52 50 47 46 46 45 45 45 45 45 45 46 46 44 44 45 46 47 48 48 48 49 50 49 50 50 50 50 50 51 51 51 52 52 53 54 54 55 56 57 58 58 59 60 61 62 63 63 64 65 66 66 67 68 68 68 70 73 75 74 73 75 75 75 76 77 79 80 80 81 83 84 85 87 88 90 93 94 91 90 91 92 95 96 95 95
56 54 53 52 50 49 48 48 47 47 47 47 47 47 47 47 47 47 47 48 48 49 50 51 51 52 53 53 53 54 54 54 54 55 55 56 56 57 58 59 61 62 63 64 65 66 67 68 69 71 71 72 73 73 74 74 73 74 76 77 79 78 79 81 80 80 81 82 83 84 85 86 88 88 89 91 91 95 98 96 92 91 93 95 96 97 97 97
56 55 55 54 53 52 51 51 50 49 49 50 50 49 49 50 50 50 50 49 50 50 51 53 54 54 55 56 58 59 60 61 61 62 62 62 63 63 64 65 66 68 69 70 71 72 73 74 75 76 78 79 80 81 81 81 80 81 82 83 84 84 85 86 86 85 86 87 87 88 89 90 91 92 93 94 95 100 101 97 95 95 96 98 98 99 99 100
57 56 56 55 54 53 52 52 52 51 51 51 51 52 52 52 53 53 53 53 53 53 53 54 55 56 57 57 58 59 61 63 65 67 68 69 69 70 70 71 72 73 74 75 76 77 78 78 79 81 83 84 84 84 85 84 84 84 86 87 87 87 88 90 90 90 91 91 91 91 92 93 94 95 95 97 100 103 102 99 98 98 100 101 101 101 101 102
56 56 56 56 55 55 54 54 54 53 52 52 52 53 54 54 55 55 56 56 56 56 56 56 56 57 58 59 60 60 61 62 64 66 68 70 71 72 73 74 75 77 78 80 81 82 83 84 85 87 88 88 88 88 88 88 87 87 89 90 90 90 91 93 93 93 94 94 94 94 94 95 96 97 98 101 104 105 102 100 100 101 102 103 103 103 103 103
51 53 54 55 56 56 56 55 55 55 55 54 54 54 54 55 56 57 58 59 59 59 59 59 59 59 60 61 62 63 64 64 65 66 68 69 71 72 73 74 76 77 79 80 82 83 84 85 86 87 88 89 89 89 90 90 90 90 92 93 93 93 94 95 96 96 96 96 96 96 97 98 99 100 102 104 106 106 104 103 103 104 105 105 105 105 105 105
44 46 49 51 53 54 55 56 56 56 56 56 56 56 56 57 57 58 59 60 61 62 62 62 63 63 64 64 65 65 67 68 69 69 70 71 72 74 75 76 77 78 79 80 81 82 83 84 85 86 87 88 89 90 91 91 92 92 93 95 95 96 97 97 99 100 100 100 100 100 101 103 103 105 106 108 109 107 106 106 107 107 107 107 106 105 104 104
38 40 43 45 48 50 52 54 55 56 57 58 58 58 59 59 59 60 60 60 61 62 63 64 65 66 66 67 68 68 69 71 71 73 74 75 76 77 78 80 81 82 83 84 85 86 86 87 88 90 90 91 92 93 94 94 95 96 97 98 99 100 101 102 103 104 105 105 106 105 106 107 108 109 110 111 110 108 107 108 108 107 107 105 104 104 103 102
33 35 36 38 41 43 46 48 51 53 55 56 57 58 59 60 61 61 62 62 63 63 64 65 66 67 68 69 70 70 72 73 74 75 77 78 79 81 82 83 84 86 87 88 89 90 91 92 93 94 95 96 97 98 99 99 100 101 102 103 104 105 105 106 107 108 109 108 108 108 109 109 110 110 110 110 108 106 105 105 105 104 102 101 101 101 101 100
29 30 31 32 34 36 38 40 42 45 47 49 51 53 55 56 58 59 60 61 62 63 64 65 66 67 68 69 70 72 74 75 76 77 78 79 81 82 84 85 86 87 88 89 90 92 92 94 95 96 97 99 100 101 101 102 102 103 104 103 104 105 105 105 106 106 106 105 105 105 105 105 106 105 104 104 103 102 101 100 99 98 97 98 98 99 98 97
25 26 27 29 30 31 33 34 36 38 40 42 43 45 47 49 51 53 54 56 57 59 60 62 63 64 66 67 68 70 72 73 74 75 76 78 79 81 82 84 85 85 86 87 89 90 90 91 93 93 95 96 96 97 97 97 97 98 98 98 98 99 99 99 99 99 98 98 99 99 98 99 98 97 97 97 97 97 96 95 94 94 94 95 95 95 94 92
23 24 26 27 28 29 30 32 33 34 36 37 38 40 41 43 45 46 48 49 51 52 54 56 57 59 61 62 64 65 66 67 69 70 71 73 75 77 79 80 81 81 82 83 84 85 85 86 87 87 88 89 90 91 90 90 91 91 92 92 92 92 93 93 93 93 93 93 94 94 94 93 93 92 93 93 94 93 92 92 92 92 92 92 92 91 91 90
22 23 24 25 26 27 28 30 31 33 34 35 37 38 39 40 42 43 44 45 47 48 50 51 52 54 56 57 58 60 61 62 63 65 67 68 70 72 74 76 76 77 77 78 79 80 82 82 83 83 84 85 86 86 86 86 86 87 88 87 87 87 88 90 90 90 90 90 91 91 91 90 89 89 91 91 92 92 91 91 91 91 90 90 89 89 89 88
20 21 22 23 24 25 26 28 29 30 31 33 34 35 36 37 39 40 41 42 44 45 47 48 49 51 52 53 54 56 57 58 60 62 65 66 69 70 72 73 74 74 75 76 77 78 79 80 80 81 82 83 83 82 82 82 83 84 84 83 84 84 85 87 88 88 88 87 87 88 87 87 87 88 89 89 90 90 90 90 90 89 89 89 89 88 88 87
19 19 20 20 21 22 23 24 26 27 28 29 30 31 33 34 35 37 38 40 41 43 45 46 47 48 49 50 52 53 54 56 58 61 64 66 68 69 71 71 72 73 73 74 74 75 76 77 77 78 79 79 79 78 78 79 81 81 81 81 81 81 81 82 84 84 84 83 83 83 83 83 84 85 85 86 87 88 89 89 88 88 88 88 88 87 87 86
17 18 18 18 18 20 21 22 23 24 25 27 28 29 30 31 33 34 36 38 40 42 43 44 45 46 47 49 51 52 54 56 58 61 64 66 67 68 69 69 70 70 70 71 71 72 73 73 74 75 76 75 75 75 76 76 77 78 78 77 76 75 75 76 77 77 77 76 76 77 78 79 80 81 82 83 83 85 86 87 87 87 87 86 86 86 85 85
17 17 17 17 18 19 20 21 22 23 24 25 26 27 29 30 32 33 35 37 38 39 41 42 43 44 46 48 51 53 54 57 59 61 63 64 65 66 66 66 66 67 67 68 68 69 70 70 71 72 72 71 72 73 73 73 73 73 72 71 70 69 68 70 70 70 70 70 71 72 73 75 76 77 78 79 80 81 83 84 85 85 85 84 84 84 84 83
17 17 18 19 19 20 21 22 23 24 25 26 27 28 29 31 33 34 36 37 38 39 40 42 42 44 46 48 51 53 55 57 59 60 61 62 63 63 64 64 64 64 65 65 66 67 67 68 69 69 69 69 69 69 68 68 67 66 65 65 64 63 64 66 66 65 66 66 66 68 69 71 73 74 75 76 77 78 79 81 81 82 82 82 82 82 82 82
18 19 20 20 21 22 23 24 25 26 27 28 30 31 33 34 35 36 38 38 39 41 42 43 44 46 48 50 52 54 55 57 58 59 60 61 61 62 62 62 62 63 63 64 64 65 66 66 67 66 65 65 64 63 62 62 61 60 60 60 60 60 61 62 62 62 63 63 63 64 66 68 69 71 72 73 74 75 76 77 78 78 79 79 80 80 80 81
21 21 22 23 24 25 26 28 29 30 31 32 34 35 37 38 39 39 40 40 41 42 43 44 46 47 49 51 53 54 56 57 58 59 60 60 61 61 62 62 62 62 63 63 63 63 64 64 64 62 61 59 58 57 56 55 56 56 56 56 57 58 59 59 60 61 61 61 62 63 65 66 66 68 69 70 72 72 73 74 74 75 76 77 77 78 79 80
22 24 25 27 28 28 30 31 32 33 34 35 36 38 39 40 40 41 41 42 43 43 44 45 47 48 50 52 54 56 57 58 59 60 60 61 61 62 62 62 63 62 62 62 62 61 61 60 59 57 56 54 53 52 52 51 52 53 53 53 54 55 57 57 58 60 60 61 62 63 65 65 65 66 68 69 70 70 71 72 72 73 74 75 77 78 80 82
24 25 27 28 29 30 31 31 32 32 33 34 36 37 37 38 38 39 40 41 43 43 44 46 47 49 52 54 56 57 58 59 60 60 61 61 62 62 62 62 62 62 61 61 59 58 56 55 54 53 52 51 50 50 49 49 50 51 51 51 52 54 55 57 58 59 60 61 62 65 66 65 65 67 68 69 70 70 71 71 73 74 75 76 78 81 83 85
24 25 27 28 29 29 30 30 30 31 32 34 35 35 35 37 38 39 40 41 42 43 45 47 49 52 53 55 57 58 59 60 61 61 62 62 61 62 61 61 61 60 59 57 55 53 52 51 50 50 49 49 48 48 48 48 48 50 51 51 52 53 55 56 58 59 60 61 63 66 66 65 66 68 69 70 70 71 72 73 75 76 78 79 81 84 86 87
24 25 25 26 27 28 29 30 30 31 33 34 35 35 37 38 40 41 41 42 43 44 47 49 51 53 54 56 58 59 60 61 61 61 62 61 61 61 60 59 58 56 54 52 51 50 49 48 47 47 47 47 47 47 48 48 49 50 51 52 53 54 55 57 58 59 60 61 62 65 67 66 65 66 68 70 71 72 74 75 77 79 81 83 85 87 88 90
25 25 25 26 28 29 30 31 32 32 33 34 34 36 37 38 40 40 41 43 45 46 48 50 52 54 55 57 59 60 60 61 61 62 62 61 60 59 57 55 53 51 50 48 47 47 46 46 46 46 46 47 47 48 49 50 50 51 52 53 54 55 56 57 59 60 60 61 62 63 67 67 65 65 66 68 69 71 73 75 78 80 83 86 88 90 91 93
26 26 27 28 28 29 30 31 32 32 32 33 34 35 37 38 39 41 42 44 46 48 50 52 54 55 57 58 59 60 61 61 61 61 61 59 57 54 52 50 48 47 46 45 45 45 45 45 46 46 47 48 49 50 51 51 52 53 54 55 56 57 58 59 60 61 62 62 62 64 67 68 66 65 65 66 67 68 70 73 76 78 81 84 86 88 89 91
27 27 28 28 28 29 29 30 31 32 33 34 35 37 39 40 42 43 45 46 49 51 52 54 56 57 58 58 59 60 61 61 60 59 57 54 52 50 48 46 45 44 44 43 44 45 45 46 47 48 48 49 50 51 52 53 54 55 55 56 57 58 59 61 62 62 64 64 64 66 69 69 68 66 66 67 67 68 70 72 74 76 79 81 82 84 86 87
28 27 27 27 28 29 30 30 32 33 35 36 38 40 42 44 45 47 48 50 51 53 55 56 57 58 59 59 59 60 60 59 57 54 51 49 47 46 44 43 43 43 43 44 44 45 47 48 49 50 50 51 52 52 53 54 55 56 57 58 59 60 61 62 63 64 66 65 66 68 70 72 71 69 68 69 69 70 72 74 75 77 79 81 82 84 85 87
27 27 27 28 29 30 31 32 34 36 37 39 41 43 45 47 48 50 51 52 53 56 57 57 58 59 59 59 59 57 55 53 50 48 46 45 44 44 43 43 43 44 44 45 46 47 48 50 51 52 52 52 53 54 55 56 57 58 59 61 62 62 63 64 65 66 68 68 68 70 71 73 73 71 70 72 71 72 74 76 77 79 80 81 83 84 86 87
28 28 29 30 31 33 34 35 37 38 40 42 43 45 47 49 51 52 53 54 55 57 58 59 59 59 58 56 54 51 48 46 46 44 44 43 44 44 44 45 45 46 46 47 48 49 50 51 53 53 54 55 56 57 57 58 60 61 62 63 64 65 66 65 66 68 69 70 70 71 72 73 72 72 72 73 73 73 75 77 78 80 81 81 83 84 86 87
31 31 32 34 35 36 37 38 39 41 42 44 45 47 49 51 52 53 54 55 57 58 59 58 57 55 52 49 47 45 44 44 44 44 44 44 45 46 46 47 47 48 48 49 50 51 52 54 55 56 56 57 58 58 59 60 62 63 64 65 66 67 67 66 67 68 69 70 71 71 73 73 72 73 74 74 74 74 76 78 79 80 81 82 83 85 87 88
36 36 37 38 39 39 40 41 42 43 44 45 47 49 51 52 53 54 56 56 56 56 54 53 50 48 46 45 44 44 44 45 45 45 46 46 47 47 48 48 49 50 50 51 51 52 54 57 58 58 58 59 59 60 61 62 63 64 65 66 67 68 68 67 67 68 69 70 71 71 73 72 72 74 75 76 76 77 78 79 80 82 83 84 84 86 87 88
40 41 42 42 43 43 44 44 44 45 46 48 50 51 52 53 54 55 56 55 53 51 49 47 46 46 45 45 45 46 45 46 47 47 47 48 48 49 50 50 51 51 52 53 53 54 55 58 59 60 60 60 61 62 63 64 64 65 66 66 67 68 69 68 68 68 69 70 70 71 72 72 73 74 75 77 78 78 78 79 80 81 81 82 82 82 83 84
43 44 45 46 46 46 46 46 47 48 49 50 51 52 53 54 55 55 54 52 50 48 47 47 46 46 46 46 46 47 47 47 48 48 49 50 50 51 52 52 53 53 54 54 55 55 56 58 60 60 60 60 61 62 63 63 64 64 65 65 66 67 68 68 67 67 69 69 68 70 71 72 73 73 74 76 76 76 77 76 76 77 78 79 79 80 81 82
45 47 48 48 49 49 49 48 49 49 51 51 52 53 54 54 55 53 51 49 48 48 48 48 47 47 48 48 48 48 49 49 49 50 51 51 52 53 53 54 54 55 55 55 56 56 55 57 59 59 58 58 59 60 61 61 62 63 63 64 64 65 66 66 66 65 66 67 66 66 68 69 71 72 72 73 74 75 75 75 75 76 77 79 80 81 82 83
48 49 50 50 51 51 50 50 50 51 52 52 53 54 54 54 53 51 49 49 48 48 48 49 49 49 49 50 50 50 50 51 51 51 52 53 53 54 54 54 55 55 55 55 55 55 54 55 58 58 56 56 58 58 59 59 60 61 61 62 62 62 63 64 64 64 64 65 64 64 65 67 69 71 72 73 74 75 76 77 77 78 80 82 83 85 86 87
50 51 51 51 52 52 51 51 51 51 52 53 53 53 53 52 51 49 48 48 48 48 49 49 50 50 50 51 51 52 52 52 52 52 53 53 53 54 54 54 54 54 54 54 53 53 53 52 55 57 55 55 56 57 57 58 58 59 59 60 61 61 61 62 63 64 64 64 65 64 65 66 70 72 74 75 76 77 79 80 81 82 84 86 87 89 91 92
50 51 51 52 52 52 51 51 51 52 52 53 53 52 52 50 49 48 48 48 49 49 50 51 51 51 51 52 52 52 52 52 52 52 52 52 52 53 53 52 52 52 52 52 52 52 52 51 52 54 54 53 54 55 55 56 57 58 58 59 60 61 62 62 63 65 67 67 68 68 67 68 72 75 77 78 79 80 82 84 85 87 88 90 92 94 95 97
51 51 51 52 51 51 51 51 51 52 52 52 52 51 49 49 48 48 49 49 50 50 51 52 52 52 52 52 52 52 52 52 51 51 51 51 51 51 51 51 51 51 50 50 50 50 50 50 51 52 52 52 53 54 54 55 57 58 59 60 62 63 64 64 65 67 70 71 73 73 71 71 76 79 80 81 83 85 86 88 90 92 93 94 96 98 100 102
51 51 51 51 50 50 50 51 51 51 51 50 50 49 48 48 48 49 50 50 51 52 52 52 52 52 52 52 51 51 51 50 50 49 49 49 49 49 49 49 49 50 50 49 49 49 49 49 50 51 52 53 54 55 56 57 58 60 62 63 64 66 67 68 69 70 72 75 77 78 77 77 80 83 84 86 88 89 91 93 95 97 98 99 101 103 105 107
51 50 49 49 49 49 50 50 50 50 49 49 48 48 48 49 49 50 51 52 52 52 52 52 52 51 51 50 50 49 49 48 48 48 48 48 48 48 48 48 49 49 49 49 50 50 50 50 51 52 54 55 56 57 59 60 61 63 65 66 68 69 70 72 73 74 75 77 80 82 82 83 84 86 88 90 92 94 96 98 100 102 103 104 106 108 110 111
49 48 48 48 49 49 49 49 49 48 47 47 48 48 49 50 51 51 52 52 52 51 51 50 50 49 48 48 47 47 47 47 46 47 47 47 48 48 48 48 49 49 50 50 51 52 52 52 53 54 56 58 59 60 61 63 65 66 67 69 71 72 74 75 77 78 79 81 83 85 86 87 89 90 92 94 96 98 100 102 104 106 107 109 111 113 114 115
47 47 47 48 48 48 48 48 47 46 46 47 48 49 50 51 51 52 51 51 50 49 48 47 47 46 46 46 45 45 46 46 46 46 46 47 48 48 49 49 50 51 51 52 53 55 55 56 56 57 58 60 61 63 64 65 67 69 70 72 74 75 77 79 80 82 84 85 87 89 91 92 93 95 96 98 100 102 104 106 108 109 111 112 113 115 115 115
46 47 47 47 47 47 46 46 45 46 46 47 48 49 50 50 50 50 49 48 47 46 45 45 44 44 44 44 45 45 45 46 46 47 47 48 48 49 50 51 52 53 54 55 56 57 58 59 59 60 61 62 64 65 66 67 69 71 73 75 77 79 81 83 84 86 88 90 92 93 95 96 97 99 100 103 104 106 107 109 110 111 112 113 113 113 113 113
45 46 46 46 45 44 44 44 45 46 47 47 48 48 48 48 47 46 46 45 44 44 43 43 43 43 44 44 45 46 46 47 47 48 48 49 50 50 51 52 53 54 55 57 58 59 60 61 62 63 65 66 67 69 70 71 73 75 76 78 80 82 84 86 88 90 92 94 96 98 99 100 101 102 104 105 106 107 109 109 110 111 111 111 112 111 111 111
45 44 44 43 43 43 43 44 45 46 47 47 47 46 45 44 44 43 43 43 42 42 42 43 43 43 44 45 45 46 47 48 49 50 51 52 53 53 53 54 55 56 58 59 61 62 63 64 65 67 69 70 71 73 75 76 78 79 81 82 84 86 88 90 92 94 95 97 99 100 101 102 103 104 105 105 106 107 108 108 108 109 109 109 109 109 110 110
43 42 42 42 42 43 44 44 45 45 45 44 43 42 41 41 41 41 41 41 41 42 42 43 43 44 44 45 46 47 48 49 51 52 53 54 55 56 56 57 58 60 61 62 64 65 66 68 69 71 73 74 76 77 79 81 83 84 85 86 88 89 91 92 94 95 97 99 100 100 101 102 102 103 103 104 104 104 105 105 105 106 106 107 107 108 108 108
40 41 41 42 43 43 43 43 42 42 41 40 40 39 39 39 39 40 40 41 41 42 42 43 44 45 45 46 47 48 49 50 51 53 54 56 57 58 59 61 62 64 65 67 68 70 71 73 74 75 77 79 80 81 83 84 86 87 88 89 90 91 92 93 94 95 97 98 99 99 99 99 100 100 101 101 101 102 103 104 104 105 106 106 107 107 108 108
40 41 41 42 42 41 41 40 39 39 38 38 38 38 38 38 38 39 40 40 41 42 42 43 44 45 46 47 48 49 50 52 53 55 57 58 60 62 63 65 67 68 70 71 72 74 75 76 78 78 80 81 82 83 84 85 86 88 88 89 89 90 90 91 92 93 94 95 95 95 96 96 97 98 99 100 101 102 103 104 104 105 106 106 106 106 106 106
40 40 40 39 39 38 37 37 37 37 37 37 37 37 37 37 38 38 39 40 41 42 43 44 45 46 47 49 50 52 54 56 58 60 61 63 65 66 67 69 70 72 73 74 75 76 77 78 79 79 80 81 81 82 82 83 84 85 86 86 87 87 88 89 89 90 92 92 92 93 94 95 96 97 98 99 100 102 102 103 103 103 104 104 104 104 103 103
Wind_Direction
221 221 222 221 221 222 226 230 234 237 238 238 239 239 240 240 240 241 241 241 241 241 242 243 243 244 245 247 250 252 253 254 256 257 258 260 261 262 262 262 263 264 264 263 263 264 264 265 266 267 267 268 269 270 270 270 271 271 271 272 272 271 272 272 272 272 272 273 274 273 272 272 272 272 272 272 272 273 273 273 274 275 276 276 276 276 277 279
225 224 225 225 224 224 225 227 229 232 234 236 239 241 242 244 245 246 247 246 246 246 246 246 245 245 247 250 253 256 257 258 258 259 260 261 262 263 263 264 264 265 265 264 264 264 265 266 266 267 267 268 269 270 270 270 270 270 270 270 270 270 271 271 270 270 271 272 271 271 271 270 271 271 272 272 272 273 273 273 275 276 277 277 277 278 279 280
228 228 229 229 228 228 228 229 229 230 232 234 237 238 240 242 243 244 246 248 250 249 248 248 248 246 247 250 251 253 255 256 257 258 259 260 260 261 261 262 262 263 263 263 263 264 265 265 266 267 267 268 268 268 268 268 268 268 268 268 268 269 269 269 269 270 270 271 271 271 272 272 272 273 273 273 274 274 274 275 277 277 277 278 278 279 280 281
230 231 232 232 232 232 231 232 232 232 233 235 236 237 238 238 240 242 243 245 247 248 248 248 249 249 248 248 249 250 252 253 254 255 256 257 257 258 258 259 260 261 262 263 263 264 265 266 267 268 269 269 270 270 270 270 270 270 269 269 270 270 270 271 271 271 272 272 273 273 274 274 275 275 275 276 276 276 276 278 279 278 279 279 279 280 281 281
233 233 234 235 236 236 236 237 237 237 237 238 239 239 239 239 240 242 243 244 245 247 247 246 248 249 249 249 250 251 252 253 255 256 257 258 259 259 260 261 262 263 264 265 266 266 267 267 268 269 270 271 271 272 272 272 272 272 272 272 272 273 273 273 273 273 274 274 274 275 275 276 276 276 276 277 276 276 277 279 279 279 279 280 280 280 281 281
235 235 236 237 238 239 240 240 241 242 242 242 243 243 244 243 243 243 245 247 247 248 248 248 249 249 250 252 253 253 254 254 256 257 258 259 260 261 262 262 263 264 265 267 267 268 268 268 269 270 271 272 272 272 272 273 273 273 273 273 274 274 275 275 275 275 275 275 276 276 276 276 277 277 277 277 277 277 278 279 279 280 280 280 280 280 280 281
237 238 239 239 240 242 243 243 244 245 246 247 247 248 248 248 248 248 249 251 252 252 253 253 254 254 254 254 256 257 258 258 258 258 259 260 261 262 263 263 264 264 265 266 267 268 268 269 269 270 271 271 272 272 272 272 272 273 273 273 274 274 274 275 275 275 275 275 276 276 276 276 277 277 277 277 277 278 278 279 279 279 279 278 279 279 279 280
238 240 241 242 243 244 245 246 247 248 249 250 251 251 252 252 252 253 253 254 255 256 257 257 258 259 259 258 259 260 260 261 262 262 262 262 263 264 264 265 265 266 266 267 267 268 268 268 269 269 270 270 270 271 271 272 272 272 272 272 273 273 273 273 274 274 274 274 274 274 275 275 275 275 275 276 276 277 278 278 278 277 277 277 278 278 279 279
240 241 243 244 245 246 247 248 250 251 252 253 254 254 255 255 255 255 256 256 257 258 259 260 261 262 263 263 263 263 264 264 265 265 266 266 266 266 266 267 267 268 268 268 268 268 269 269 270 270 270 270 271 271 271 271 272 271 272 272 272 272 273 273 273 273 274 274 274 274 274 274 274 274 274 275 275 276 277 276 276 276 277 277 277 277 277 277
242 243 244 245 246 248 249 250 251 253 254 255 256 257 257 258 258 259 259 260 260 261 261 262 263 264 265 266 266 267 267 267 267 268 268 269 269 269 269 269 269 270 270 270 270 271 271 271 272 272 272 272 272 272 272 273 273 273 273 273 273 273 273 274 274 274 274 274 274 274 274 274 274 274 274 275 275 275 275 275 276 276 277 277 277 277 276 276
245 246 247 248 249 250 251 252 253 254 255 257 258 259 260 260 261 262 262 263 263 264 264 265 265 266 266 267 268 268 268 269 269 269 270 270 271 271 271 271 271 271 272 272 272 272 273 273 273 274 274 274 274 274 274 274 275 275 275 275 275 275 275 274 274 274 274 275 275 274 274 274 274 274 274 274 275 275 275 275 275 276 276 277 276 276 276 277
247 248 250 250 251 252 253 254 254 255 256 258 259 260 261 262 263 263 264 265 265 266 266 267 267 267 267 268 268 269 269 270 270 271 271 272 272 272 272 272 273 273 273 274 274 274 274 274 274 275 275 275 275 275 275 275 275 275 275 275 275 275 275 275 275 275 275 274 274 274 274 274 274 274 274 274 274 274 275 275 275 276 276 276 276 276 277 278
246 248 250 251 252 253 254 255 256 257 258 259 260 261 262 262 263 264 264 265 266 266 267 267 268 268 268 269 269 270 270 271 271 272 272 272 273 273 273 273 273 274 274 275 275 275 275 275 275 276 276 276 276 276 276 276 276 276 276 276 276 276 275 275 275 275 274 274 274 274 274 274 274 274 274 274 274 274 275 275 275 275 275 275 276 277 277 278
247 249 251 252 254 255 256 257 258 258 259 260 260 261 262 263 263 264 265 265 266 266 267 267 268 268 269 269 270 271 271 272 272 272 272 272 273 273 273 273 274 274 275 276 276 276 276 276 277 277 277 277 277 277 277 277 278 278 277 277 277 277 277 276 275 275 274 274 274 273 273 273 273 273 273 274 274 274 274 274 274 274 274 275 276 277 277 277
250 252 254 255 257 258 259 259 260 260 261 261 262 263 263 264 265 266 266 267 267 268 268 268 269 270 271 271 272 272 273 273 274 274 273 273 273 273 274 274 275 276 276 277 277 277 277 277 277 278 278 278 278 278 278 278 278 278 277 277 277 277 277 276 276 275 274 274 273 273 273 273 272 272 272 272 273 273 273 274 274 275 275 276 276 276 277 277
255 256 258 260 261 262 262 262 262 263 263 264 264 265 266 267 268 269 269 270 270 270 270 271 271 272 273 274 274 275 275 275 275 275 274 274 274 275 275 276 277 277 277 278 278 278 278 278 277 277 277 277 277 278 278 278 277 277 277 277 277 276 276 276 275 275 274 273 273 273 272 272 271 271 271 271 272 272 273 273 274 274 275 275 276 276 277 277
261 262 262 263 265 266 267 267 267 267 268 268 269 269 270 271 271 272 272 272 273 273 274 274 275 275 276 276 276 276 277 276 276 275 275 275 275 276 277 278 278 278 278 278 277 277 277 277 277 277 277 277 277 278 278 277 277 277 277 277 277 276 276 275 275 275 274 274 273 273 272 272 271 270 270 271 271 272 272 273 273 274 274 275 275 276 276 277
266 266 267 269 271 273 274 274 273 273 273 273 273 273 274 275 275 275 276 276 276 277 277 277 277 277 277 277 277 277 277 277 276 276 277 277 278 278 279 279 279 279 278 278 278 277 277 277 277 277 277 277 278 278 277 277 277 277 277 277 277 276 276 275 275 275 275 275 274 273 273 272 271 271 271 271 271 271 272 272 273 273 274 275 275 276 277 277
271 271 272 274 276 277 277 278 277 277 277 278 279 279 280 280 280 280 281 281 281 281 280 279 278 278 278 279 279 279 278 278 278 278 279 280 280 280 280 280 280 280 280 279 279 279 278 278 278 277 278 278 278 277 277 277 277 277 277 277 277 276 276 275 274 275 275 275 274 274 273 273 273 272 272 272 272 272 272 273 273 274 274 275 276 276 277 277
275 277 278 279 280 281 281 282 282 282 283 283 284 284 284 284 284 284 284 284 284 284 283 282 281 281 281 282 282 281 281 280 281 281 282 282 283 283 283 282 282 282 281 281 281 281 280 280 279 279 279 279 278 278 278 277 277 277 277 277 277 276 276 276 276 276 275 275 275 275 275 274 274 274 273 273 273 273 273 274 274 275 275 275 276 276 276 276
279 282 284 285 286 287 288 289 289 289 289 290 289 289 289 288 288 287 287 286 286 286 285 285 286 286 286 285 284 284 284 284 285 285 286 286 286 286 286 285 285 284 284 283 283 283 282 282 281 281 280 280 279 278 277 277 277 277 277 277 278 277 277 277 277 277 277 276 276 275 275 275 275 275 275 275 274 274 274 275 275 276 276 276 276 276 276 277
282 286 289 290 292 294 295 296 297 297 297 296 295 294 293 292 292 291 290 289 289 288 289 290 290 290 289 288 287 287 287 288 288 289 289 289 289 289 289 288 288 287 286 286 285 285 284 283 283 282 281 280 279 278 278 277 277 277 277 277 278 278 278 278 278 278 278 277 277 276 275 275 275 275 275 275 276 276 276 277 277 277 277 277 277 277 277 277
284 287 289 291 293 295 296 297 298 298 298 298 297 296 295 294 293 293 292 292 292 292 293 292 292 290 289 288 289 289 290 291 292 292 291 291 291 291 291 290 290 289 288 288 287 286 285 284 284 283 282 281 281 280 280 279 279 278 278 278 277 278 278 278 277 277 277 277 277 276 276 276 276 276 276 276 276 277 277 278 278 278 278 278 278 277 277 277
282 284 286 288 290 292 293 294 296 297 299 300 300 299 299 298 298 298 297 296 295 294 293 292 290 289 289 290 291 292 293 293 293 293 293 293 293 292 292 292 291 291 290 289 289 287 286 285 284 284 283 283 283 283 282 282 282 282 281 281 280 280 279 279 278 278 278 278 277 277 277 278 278 277 277 277 277 277 277 277 277 277 277 276 276 276 276 276
282 283 285 287 289 292 294 296 298 300 302 303 303 303 303 303 302 300 298 296 294 293 291 290 289 289 290 292 293 294 294 294 294 294 294 294 294 293 293 293 292 292 291 290 289 288 286 286 285 285 285 285 285 284 284 284 284 284 284 284 284 283 282 282 281 280 280 280 279 279 279 279 279 279 279 278 278 278 278 277 277 276 276 276 275 275 275 275
287 287 289 291 294 297 299 300 301 303 304 305 305 305 303 302 300 298 296 294 292 291 290 289 290 292 293 294 295 295 295 295 295 295 295 295 295 295 294 294 293 292 291 290 289 288 287 286 286 286 286 286 286 286 285 285 285 285 285 285 285 284 283 283 282 282 282 282 281 281 281 280 280 280 280 280 279 279 279 278 278 277 276 275 275 275 275 275
293 294 297 299 300 301 302 303 304 306 307 307 307 306 304 302 300 298 296 295 293 292 292 293 294 294 295 296 296 296 296 296 297 297 296 296 296 296 295 294 293 292 291 290 290 289 288 288 287 287 287 287 287 287 287 287 286 286 285 285 285 284 284 283 283 283 283 282 282 282 281 281 282 282 281 281 281 281 280 279 278 277 276 276 275 275 275 276
300 301 302 303 303 304 305 306 307 309 309 309 309 308 306 304 302 300 299 298 297 296 296 296 296 296 297 297 297 297 297 297 297 297 297 297 297 296 295 294 293 292 292 291 290 289 289 289 289 288 288 288 288 288 288 288 288 287 287 286 286 285 285 284 284 284 284 283 283 282 281 282 283 283 282 282 282 282 281 280 279 278 277 277 277 277 277 277
305 305 305 306 307 308 308 308 309 309 310 310 310 310 309 307 306 304 303 301 300 299 298 298 298 298 298 298 298 298 298 298 298 298 298 298 297 297 296 295 294 293 293 292 291 291 290 290 290 290 289 289 289 289 289 289 289 288 288 287 286 286 286 286 285 285 285 285 285 284 284 284 284 284 284 283 283 282 281 280 279 279 278 278 278 278 278 278
309 309 309 310 310 310 310 310 310 310 311 311 311 311 311 309 308 306 303 302 301 301 300 300 300 300 299 299 299 299 299 299 299 299 299 299 298 298 297 296 296 295 294 294 293 293 292 292 291 291 291 291 290 290 290 289 289 289 288 288 287 287 287 286 287 287 286 287 286 286 286 286 286 287 286 285 284 283 282 281 280 280 279 279 279 279 279 280
311 311 312 312 312 312 312 312 311 312 312 312 312 312 311 309 306 305 304 303 303 303 302 302 302 301 301 301 301 301 301 301 301 301 301 300 300 299 298 298 297 296 296 295 295 294 293 293 293 292 292 292 291 291 291 290 290 289 289 289 288 288 287 288 288 288 287 288 287 287 287 287 288 289 288 286 285 284 283 282 281 281 280 280 280 280 281 281
313 314 315 315 315 314 314 314 314 315 315 314 313 312 309 307 306 305 305 305 305 305 304 304 303 303 303 303 303 303 303 303 302 302 302 301 300 299 299 298 297 297 296 296 296 295 294 294 293 293 293 293 292 292 292 291 291 290 290 289 289 288 288 288 289 288 288 288 288 288 288 288 289 289 287 286 285 284 283 282 282 281 281 281 281 281 282 282
318 318 318 317 316 315 315 316 316 316 314 313 311 309 308 307 306 307 307 307 308 307 306 306 305 305 305 305 305 305 304 304 303 303 302 302 301 300 299 298 298 298 297 297 296 296 295 295 294 293 293 293 293 292 292 291 291 290 290 289 289 289 288 289 288 288 288 288 288 288 288 288 289 288 287 286 285 284 283 282 282 282 282 282 282 282 283 283
320 321 320 319 318 316 315 315 314 313 311 310 309 308 307 308 308 309 309 309 309 309 308 308 308 308 307 307 306 306 305 305 304 303 302 302 301 300 299 299 299 298 298 297 297 297 296 295 295 294 294 294 293 293 292 291 291 290 290 290 289 289 289 289 288 288 288 288 288 288 288 288 287 287 286 286 285 284 283 283 283 283 283 283 283 283 283 283
320 321 321 320 318 316 314 313 312 311 310 309 308 308 309 309 310 310 311 311 311 311 311 310 310 309 308 308 307 306 305 305 304 303 303 302 301 301 300 300 299 299 298 298 297 297 296 295 295 295 295 294 294 293 292 292 291 291 291 290 290 290 290 290 290 290 289 289 289 289 288 288 287 286 286 285 285 285 284 284 284 284 284 284 284 283 283 283
319 319 320 319 318 317 315 313 311 310 309 308 309 309 310 311 311 311 311 311 311 311 311 311 310 309 308 308 307 306 305 305 304 304 303 302 302 301 301 301 300 299 299 298 298 297 297 295 295 295 295 295 294 294 293 293 292 292 292 291 291 291 291 291 291 291 290 290 290 289 289 289 288 287 287 286 286 286 286 286 286 285 285 285 284 284 283 283
316 317 318 319 318 316 314 312 310 309 309 309 310 311 311 311 312 312 312 311 311 312 311 311 310 310 309 308 307 306 306 305 305 304 304 304 303 303 302 301 301 300 300 299 299 298 298 297 296 295 295 295 295 294 294 294 294 293 293 293 293 292 292 292 292 292 291 291 291 290 290 290 289 289 289 288 288 288 288 288 288 287 286 286 285 285 284 284
316 316 317 317 316 315 313 311 309 309 310 310 311 311 312 312 312 312 312 311 312 312 311 311 311 310 309 308 308 307 307 306 306 306 305 305 304 303 303 302 302 301 301 300 300 299 299 299 298 297 298 298 297 296 295 295 294 294 294 294 294 293 293 293 293 293 293 292 292 292 291 291 290 290 289 289 289 289 289 289 289 288 288 287 287 286 286 286
315 315 315 315 314 312 311 310 310 310 311 311 311 311 312 312 312 311 312 312 312 312 311 311 310 310 309 308 308 308 308 308 307 307 306 305 305 304 304 303 303 303 302 302 302 301 301 301 300 300 301 300 299 298 297 297 296 296 296 296 295 295 295 295 295 295 294 293 293 292 292 292 291 289 289 290 290 290 290 290 289 289 289 288 288 288 287 287
314 315 314 312 311 310 310 310 311 311 311 311 312 312 312 312 312 312 312 312 312 312 311 311 310 310 310 309 309 309 308 308 308 308 307 307 306 306 305 305 304 304 304 304 304 304 303 303 302 301 302 301 300 299 299 299 299 298 298 297 297 297 297 296 296 296 295 294 294 293 293 292 291 290 290 291 291 291 290 290 290 289 289 288 288 288 288 288
313 313 312 310 310 310 310 311 311 311 311 311 312 312 312 312 312 313 313 313 313 312 312 311 311 311 310 310 310 310 309 309 309 309 308 308 307 307 307 307 306 306 306 306 305 305 305 304 303 303 303 302 301 301 300 300 300 299 299 298 298 298 297 297 297 296 296 295 295 294 294 294 292 291 292 292 291 291 291 290 290 289 289 289 288 288 288 288
313 311 310 310 310 310 311 311 311 311 312 312 312 312 313 313 313 314 314 314 313 313 313 312 312 312 311 311 311 311 311 311 310 310 310 309 309 309 309 308 308 308 308 307 307 307 306 306 305 304 304 303 302 302 301 301 301 300 299 298 298 298 298 297 297 296 296 296 295 295 295 294 293 292 292 292 291 291 291 290 290 289 289 289 289 288 288 288
311 310 310 310 310 311 311 311 311 312 312 313 313 314 314 314 314 315 314 314 314 313 313 313 313 313 313 313 313 313 312 312 312 312 312 312 311 311 311 311 310 310 310 309 309 308 307 307 306 306 305 303 303 302 302 301 301 300 299 299 298 298 298 297 297 296 296 295 295 294 294 293 292 292 291 291 291 290 290 290 290 290 290 290 289 289 289 288
310 310 311 311 311 312 312 312 312 313 314 314 314 315 315 315 315 315 315 315 314 314 315 315 315 316 315 315 315 315 314 314 314 314 314 314 313 313 313 312 312 311 310 310 309 308 307 306 306 305 304 303 302 302 302 301 300 300 299 298 298 298 297 296 296 295 295 294 293 293 293 292 292 292 291 291 291 291 291 290 290 290 290 290 290 289 289 289
311 312 312 313 313 313 312 313 314 315 315 315 315 316 316 316 315 315 315 316 316 317 317 317 318 317 317 317 317 317 316 316 316 316 316 315 314 314 313 313 312 311 310 309 308 307 306 306 305 304 303 302 302 301 301 300 299 299 298 298 297 297 296 295 295 295 294 294 293 293 293 292 292 292 292 292 291 291 291 291 291 291 290 290 290 290 290 290
313 313 313 313 313 313 314 315 316 316 316 316 316 316 316 316 316 317 317 318 319 319 320 319 319 319 319 319 319 319 318 318 318 317 316 315 314 313 313 312 311 310 309 308 307 307 306 305 305 304 302 302 301 300 300 299 298 297 297 297 296 296 296 295 295 295 294 294 294 293 293 293 293 293 292 292 292 292 292 292 292 292 292 292 291 292 292 292
313 313 313 313 314 315 316 316 316 316 316 317 317 317 317 317 318 319 320 321 321 321 322 322 322 322 321 321 321 320 320 319 318 317 316 314 313 313 312 311 310 310 309 308 307 306 306 305 304 303 302 302 301 300 300 299 298 297 297 296 296 296 295 295 295 295 295 294 294 294 294 294 294 293 293 293 293 293 293 293 293 293 293 293 293 294 294 294
314 314 314 315 316 317 317 317 317 317 317 318 318 318 319 320 321 322 323 323 323 323 323 323 323 323 323 322 322 321 320 319 318 317 316 315 314 313 313 312 311 310 309 308 307 306 305 305 304 303 302 302 301 301 300 299 299 298 297 297 296 296 295 295 295 295 295 294 294 294 294 294 294 294 294 294 294 294 294 294 294 294 294 294 294 294 294 294
315 316 317 317 318 318 318 319 319 319 319 320 320 321 323 323 324 324 324 324 324 325 325 324 324 323 323 322 321 321 320 319 318 317 317 316 315 315 314 313 311 310 309 308 307 307 306 305 304 303 302 302 301 301 300 299 299 298 298 297 297 296 296 296 295 295 295 295 295 295 295 295 295 295 295 295 295 295 295 295 295 295 295 295 295 295 295 295
318 319 319 320 320 320 320 321 321 321 322 323 324 325 325 326 326 326 326 325 326 325 325 325 324 324 323 323 322 322 321 320 319 318 317 316 315 315 314 312 311 310 309 308 307 306 305 304 303 303 302 301 301 300 300 299 299 298 298 298 297 297 297 297 296 296 296 296 296 296 296 296 297 297 296 296 296 296 296 296 296 296 296 296 296 296 297 297
321 321 322 323 323 323 323 324 324 325 326 327 327 328 328 328 328 327 327 327 327 327 326 326 326 325 325 325 325 324 323 322 320 319 318 317 315 314 313 312 310 309 308 307 306 305 304 304 303 302 301 301 301 300 300 300 299 299 299 299 299 298 298 298 298 297 297 297 297 297 298 298 298 298 298 298 298 298 297 297 297 297 297 297 298 298 298 299
325 325 326 326 326 326 327 328 328 329 329 330 330 330 330 330 330 329 329 329 328 328 328 328 328 328 327 327 326 326 324 323 321 320 318 317 315 313 312 311 309 308 307 306 305 305 304 304 303 303 302 302 302 301 301 301 300 300 300 300 300 300 300 299 299 299 299 299 299 299 299 299 299 299 299 298 298 298 298 298 298 298 299 299 299 300 300 300
Height
10729 10731 10733 10735 10736 10738 10739 10740 10741 10742 10743 10744 10744 10745 10746 10747 10748 10748 10749 10749 10749 10750 10750 10751 10751 10751 10751 10751 10750 10750 10749 10749 10749 10748 10748 10747 10747 10746 10746 10745 10745 10744 10744 10743 10741 10740 10738 10738 10737 10736 10736 10735 10734 10733 10732 10731 10731 10731 10730 10729 10724 10722 10723 10724 10723 10720 10717 10715 10714 10714 10713 10711 10708 10706 10704 10702 10700 10697 10694 10689 10690 10693 10693 10691 10686 10682 10681 10683
10726 10728 10730 10732 10734 10736 10737 10738 10739 10740 10740 10741 10741 10742 10743 10744 10745 10745 10745 10746 10746 10747 10747 10748 10748 10747 10747 10747 10747 10746 10745 10745 10744 10744 10743 10743 10742 10741 10741 10740 10739 10739 10738 10737 10736 10734 10733 10732 10731 10730 10730 10729 10728 10727 10726 10725 10726 10725 10724 10721 10716 10716 10718 10717 10715 10713 10712 10710 10706 10705 10705 10703 10700 10699 10697 10694 10691 10689 10684 10679 10684 10688 10685 10681 10675 10673 10675 10675
10724 10726 10728 10730 10732 10733 10734 10735 10736 10737 10738 10738 10739 10740 10741 10741 10742 10742 10742 10742 10743 10743 10744 10744 10744 10744 10744 10744 10743 10742 10741 10741 10740 10740 10739 10738 10738 10737 10736 10735 10734 10733 10732 10732 10730 10729 10728 10726 10725 10724 10724 10723 10722 10721 10720 10719 10720 10720 10717 10713 10709 10711 10712 10708 10708 10708 10706 10703 10699 10698 10696 10694 10692 10691 10689 10685 10682 10679 10672 10672 10679 10680 10675 10671 10666 10665 10666 10665
10722 10723 10725 10727 10728 10730 10731 10732 10733 10734 10735 10736 10736 10737 10738 10738 10739 10739 10739 10739 10739 10739 10740 10740 10740 10740 10740 10739 10739 10738 10737 10736 10736 10735 10734 10734 10733 10732 10731 10730 10729 10728 10727 10726 10725 10724 10722 10721 10719 10718 10717 10716 10715 10714 10713 10713 10714 10712 10709 10706 10703 10704 10703 10699 10701 10701 10698 10696 10692 10690 10688 10685 10682 10682 10679 10676 10674 10665 10660 10667 10672 10669 10665 10661 10658 10658 10656 10655
10719 10721 10722 10724 10725 10727 10728 10729 10730 10731 10732 10732 10733 10734 10734 10735 10735 10735 10736 10736 10736 10736 10736 10736 10736 10736 10735 10735 10734 10733 10732 10732 10731 10730 10729 10728 10727 10726 10725 10724 10723 10721 10720 10719 10718 10717 10716 10714 10713 10711 10710 10708 10708 10707 10706 10705 10706 10704 10700 10697 10696 10695 10693 10690 10691 10691 10689 10687 10684 10682 10680 10676 10672 10671 10669 10666 10661 10653 10653 10661 10662 10659 10656 10652 10651 10649 10646 10646
10717 10718 10720 10721 10722 10723 10725 10726 10726 10727 10728 10729 10729 10730 10730 10731 10731 10731 10731 10731 10732 10731 10731 10732 10732 10731 10731 10730 10729 10728 10727 10727 10725 10724 10723 10722 10721 10720 10719 10717 10716 10714 10713 10712 10711 10710 10708 10707 10706 10704 10702 10701 10700 10699 10698 10698 10697 10695 10691 10688 10688 10687 10684 10680 10680 10680 10679 10677 10676 10673 10671 10667 10663 10661 10659 10654 10647 10644 10648 10653 10652 10651 10647 10643 10641 10639 10637 10636
10715 10716 10717 10719 10720 10721 10721 10722 10723 10724 10724 10725 10726 10726 10726 10727 10727 10727 10727 10727 10727 10727 10727 10727 10727 10726 10726 10725 10724 10723 10722 10721 10719 10718 10717 10716 10715 10714 10712 10711 10709 10708 10707 10706 10704 10703 10701 10700 10698 10697 10695 10693 10693 10691 10690 10689 10689 10688 10682 10679 10680 10679 10676 10672 10670 10670 10668 10668 10666 10665 10662 10658 10655 10653 10649 10642 10637 10637 10642 10644 10643 10640 10635 10633 10631 10629 10628 10626
10713 10714 10715 10716 10717 10718 10719 10719 10720 10720 10721 10721 10722 10722 10722 10722 10723 10723 10723 10723 10722 10722 10722 10722 10722 10721 10720 10719 10718 10717 10716 10715 10713 10713 10711 10710 10709 10708 10706 10704 10703 10701 10700 10699 10697 10696 10694 10692 10690 10689 10688 10686 10685 10683 10680 10680 10680 10679 10675 10671 10671 10670 10667 10664 10661 10659 10658 10658 10656 10656 10653 10649 10647 10644 10638 10633 10630 10631 10635 10635 10631 10627 10624 10623 10622 10621 10619 10616
10711 10711 10712 10713 10714 10715 10715 10716 10716 10717 10717 10717 10717 10718 10718 10718 10718 10718 10718 10718 10718 10717 10717 10717 10716 10715 10714 10713 10712 10711 10710 10708 10707 10706 10704 10703 10702 10701 10699 10698 10696 10694 10692 10691 10689 10688 10686 10685 10683 10681 10679 10677 10676 10674 10671 10671 10671 10669 10667 10664 10662 10660 10658 10656 10652 10649 10648 10647 10646 10645 10642 10639 10637 10633 10629 10624 10623 10626 10627 10623 10618 10615 10614 10613 10612 10610 10608 10604
10708 10709 10710 10710 10711 10712 10712 10713 10713 10713 10713 10713 10713 10713 10714 10714 10714 10713 10713 10713 10713 10713 10712 10712 10711 10710 10709 10707 10706 10705 10704 10702 10701 10699 10697 10696 10695 10693 10692 10690 10688 10686 10685 10683 10681 10680 10678 10676 10674 10672 10670 10668 10666 10664 10662 10662 10661 10659 10658 10655 10652 10650 10648 10646 10642 10638 10636 10635 10634 10633 10629 10626 10624 10622 10619 10614 10614 10617 10615 10610 10608 10606 10604 10602 10599 10597 10594 10593
10706 10707 10707 10708 10708 10709 10709 10709 10710 10710 10710 10710 10710 10710 10710 10709 10709 10709 10709 10709 10708 10708 10707 10706 10705 10704 10703 10702 10701 10699 10697 10695 10694 10693 10691 10689 10687 10685 10683 10682 10680 10678 10676 10674 10673 10671 10669 10667 10665 10662 10661 10658 10655 10653 10652 10651 10650 10648 10646 10644 10641 10638 10637 10634 10630 10627 10625 10623 10621 10619 10615 10613 10612 10612 10608 10603 10603 10605 10603 10600 10598 10596 10594 10590 10586 10583 10581 10582
10704 10704 10705 10705 10705 10706 10706 10706 10706 10706 10706 10706 10706 10706 10705 10705 10705 10704 10704 10704 10703 10702 10701 10701 10700 10698 10697 10696 10694 10693 10691 10689 10688 10686 10684 10682 10680 10677 10675 10673 10671 10670 10667 10665 10663 10662 10660 10658 10655 10652 10650 10648 10645 10643 10642 10641 10639 10637 10634 10632 10629 10625 10623 10620 10617 10615 10613 10611 10607 10605 10602 10600 10600 10601 10597 10592 10592 10593 10591 10589 10588 10585 10582 10578 10574 10572 10572 10572
10702 10702 10703 10703 10703 10703 10703 10703 10702 10702 10702 10702 10702 10702 10701 10700 10700 10699 10699 10698 10698 10697 10696 10695 10693 10692 10691 10689 10688 10686 10685 10683 10681 10679 10677 10675 10672 10669 10666 10664 10663 10662 10659 10657 10654 10652 10650 10647 10645 10642 10640 10637 10634 10632 10631 10630 10627 10625 10623 10620 10617 10612 10609 10608 10605 10603 10601 10598 10595 10593 10590 10589 10590 10589 10586 10583 10581 10581 10580 10578 10577 10574 10571 10567 10565 10564 10564 10563
10700 10700 10700 10700 10700 10700 10700 10700 10699 10699 10699 10698 10698 10697 10697 10696 10695 10695 10694 10693 10692 10691 10690 10689 10688 10686 10685 10683 10682 10680 10679 10677 10675 10672 10670 10667 10664 10661 10658 10656 10655 10654 10652 10649 10645 10643 10640 10638 10635 10633 10630 10627 10624 10622 10621 10619 10617 10614 10611 10608 10605 10602 10598 10595 10593 10591 10589 10586 10584 10582 10580 10580 10582 10580 10576 10573 10571 10570 10569 10567 10565 10563 10561 10559 10558 10556 10555 10554
10699 10699 10698 10698 10698 10698 10697 10697 10696 10696 10695 10695 10694 10694 10693 10692 10691 10691 10690 10689 10687 10686 10685 10683 10682 10680 10679 10678 10676 10674 10672 10670 10668 10665 10662 10659 10656 10654 10651 10649 10647 10646 10644 10641 10638 10634 10631 10629 10626 10624 10620 10617 10615 10612 10611 10610 10607 10602 10599 10598 10595 10592 10588 10583 10580 10579 10577 10575 10573 10572 10570 10571 10573 10570 10566 10563 10561 10559 10558 10556 10555 10553 10552 10550 10549 10547 10545 10544
10697 10697 10696 10696 10696 10695 10695 10694 10694 10693 10693 10692 10691 10691 10690 10689 10688 10686 10685 10684 10682 10681 10679 10678 10677 10675 10674 10672 10670 10668 10666 10664 10661 10657 10654 10652 10649 10646 10644 10642 10640 10639 10636 10633 10630 10626 10623 10620 10617 10614 10611 10608 10606 10605 10603 10601 10596 10591 10589 10589 10586 10582 10578 10573 10569 10567 10566 10565 10564 10562 10561 10561 10561 10559 10556 10554 10552 10550 10548 10547 10546 10544 10542 10540 10539 10537 10535 10534
10695 10694 10694 10694 10693 10693 10692 10691 10691 10690 10690 10689 10688 10687 10686 10685 10684 10683 10682 10680 10678 10677 10675 10674 10672 10671 10669 10666 10664 10662 10660 10657 10654 10650 10647 10645 10643 10640 10638 10636 10633 10630 10628 10625 10621 10618 10615 10612 10609 10605 10602 10599 10598 10597 10595 10590 10585 10582 10580 10579 10576 10572 10568 10563 10559 10557 10556 10556 10555 10553 10551 10551 10550 10548 10546 10544 10543 10541 10539 10538 10537 10535 10533 10531 10529 10528 10526 10525
10693 10692 10692 10691 10691 10690 10689 10689 10688 10687 10687 10686 10685 10684 10683 10682 10681 10680 10678 10676 10675 10673 10671 10670 10668 10666 10664 10661 10658 10656 10654 10650 10647 10643 10640 10638 10636 10634 10631 10628 10625 10622 10619 10616 10613 10610 10607 10604 10600 10597 10593 10592 10591 10587 10584 10581 10577 10574 10571 10569 10567 10563 10559 10554 10550 10548 10548 10547 10546 10544 10541 10540 10539 10537 10536 10535 10534 10532 10529 10528 10527 10526 10524 10522 10520 10518 10516 10515
10690 10690 10689 10689 10688 10687 10687 10686 10685 10685 10684 10683 10682 10681 10680 10679 10677 10676 10674 10672 10670 10669 10667 10664 10662 10660 10658 10655 10652 10649 10647 10644 10640 10637 10635 10632 10629 10626 10623 10620 10618 10614 10611 10607 10604 10601 10598 10595 10591 10588 10586 10584 10581 10577 10575 10572 10569 10565 10562 10560 10557 10554 10550 10545 10542 10542 10541 10539 10537 10535 10533 10531 10529 10528 10527 10525 10524 10522 10520 10519 10518 10517 10516 10514 10512 10509 10506 10504
10689 10688 10687 10686 10686 10685 10684 10684 10683 10682 10681 10680 10679 10678 10676 10675 10673 10672 10670 10668 10666 10663 10661 10659 10657 10655 10652 10649 10646 10643 10640 10637 10634 10631 10628 10625 10621 10618 10615 10612 10609 10606 10603 10599 10595 10591 10589 10586 10582 10580 10578 10575 10572 10569 10566 10563 10561 10558 10555 10552 10549 10546 10541 10537 10536 10535 10533 10532 10530 10527 10524 10522 10521 10519 10518 10517 10515 10513 10512 10510 10509 10508 10507 10506 10503 10500 10497 10494
10687 10686 10685 10684 10683 10683 10682 10681 10680 10679 10678 10677 10675 10674 10672 10671 10669 10667 10665 10663 10661 10658 10656 10653 10651 10649 10646 10643 10640 10637 10634 10630 10628 10624 10621 10617 10614 10610 10607 10604 10601 10598 10594 10591 10587 10583 10580 10576 10573 10571 10569 10565 10563 10561 10558 10555 10553 10550 10547 10545 10541 10538 10534 10531 10529 10527 10525 10524 10523 10521 10516 10514 10513 10511 10509 10508 10506 10505 10504 10503 10501 10500 10499 10496 10494 10491 10488 10485
10685 10684 10683 10681 10681 10680 10679 10678 10676 10675 10674 10673 10671 10670 10668 10666 10664 10662 10660 10658 10656 10653 10651 10648 10645 10642 10639 10636 10633 10630 10627 10624 10621 10617 10613 10610 10606 10603 10599 10595 10592 10589 10586 10582 10579 10575 10572 10568 10564 10562 10560 10558 10555 10553 10551 10549 10546 10543 10541 10538 10535 10530 10527 10525 10522 10519 10518 10516 10515 10513 10509 10507 10506 10504 10502 10500 10497 10497 10496 10496 10494 10492 10490 10487 10484 10481 10479 10476
10682 10681 10680 10679 10678 10677 10676 10675 10673 10672 10671 10669 10667 10666 10664 10662 10660 10658 10655 10653 10651 10648 10646 10643 10640 10636 10633 10630 10627 10624 10621 10617 10614 10610 10606 10602 10599 10595 10591 10587 10583 10580 10577 10574 10570 10567 10563 10560 10556 10554 10552 10550 10548 10546 10544 10542 10539 10536 10534 10531 10528 10524 10521 10518 10515 10512 10510 10509 10507 10503 10500 10500 10500 10497 10495 10492 10491 10490 10489 10488 10486 10484 10482 10479 10475 10472 10469 10466
10680 10679 10678 10676 10675 10674 10673 10672 10671 10669 10668 10666 10664 10662 10660 10657 10655 10653 10650 10648 10645 10643 10640 10637 10634 10630 10628 10624 10621 10618 10614 10610 10606 10602 10598 10595 10591 10587 10583 10579 10575 10572 10568 10565 10562 10559 10555 10552 10550 10547 10545 10543 10541 10539 10537 10535 10532 10529 10526 10524 10521 10518 10514 10511 10508 10505 10503 10502 10499 10494 10492 10493 10492 10489 10487 10485 10484 10483 10482 10481 10479 10476 10474 10470 10467 10463 10459 10455
10677 10676 10675 10674 10673 10671 10670 10669 10668 10666 10664 10662 10660 10657 10655 10653 10650 10648 10645 10642 10640 10637 10634 10631 10628 10625 10622 10618 10614 10612 10608 10603 10599 10595 10591 10587 10583 10580 10576 10572 10568 10564 10560 10557 10555 10552 10548 10546 10543 10541 10538 10537 10535 10533 10530 10528 10526 10522 10519 10517 10514 10511 10507 10503 10501 10498 10496 10494 10491 10486 10484 10486 10485 10481 10479 10478 10477 10476 10474 10472 10471 10467 10464 10461 10457 10452 10448 10443
10675 10674 10673 10672 10670 10669 10667 10666 10664 10662 10660 10658 10655 10653 10651 10648 10646 10643 10640 10637 10634 10632 10629 10626 10623 10619 10616 10612 10607 10604 10600 10595 10591 10587 10583 10579 10575 10572 10568 10564 10560 10557 10554 10551 10548 10545 10542 10540 10537 10535 10533 10531 10528 10526 10524 10522 10520 10516 10513 10510 10507 10504 10500 10497 10493 10491 10489 10487 10484 10480 10476 10476 10478 10476 10473 10471 10470 10468 10466 10463 10461 10457 10453 10449 10445 10441 10437 10433
10672 10671 10670 10669 10667 10666 10664 10662 10660 10658 10656 10654 10651 10649 10646 10644 10641 10638 10635 10632 10629 10626 10623 10620 10617 10613 10610 10606 10601 10597 10593 10588 10584 10579 10575 10572 10568 10564 10561 10557 10554 10550 10547 10545 10542 10539 10537 10534 10531 10530 10527 10525 10523 10520 10517 10515 10513 10510 10506 10504 10501 10497 10493 10490 10486 10484 10482 10480 10478 10474 10467 10466 10469 10470 10466 10464 10463 10460 10457 10453 10450 10446 10441 10437 10432 10429 10426 10423
10670 10669 10667 10666 10664 10662 10660 10658 10656 10654 10652 10649 10647 10644 10642 10639 10636 10633 10630 10627 10623 10620 10618 10614 10610 10606 10603 10599 10594 10589 10585 10581 10577 10572 10568 10565 10561 10557 10554 10550 10548 10545 10542 10540 10537 10533 10531 10529 10526 10524 10522 10519 10517 10514 10511 10508 10506 10503 10499 10496 10493 10490 10486 10483 10479 10476 10473 10471 10470 10465 10459 10457 10460 10461 10459 10457 10456 10452 10448 10443 10439 10434 10429 10425 10421 10418 10415 10411
10667 10666 10664 10662 10661 10659 10657 10655 10653 10650 10648 10646 10643 10640 10637 10634 10631 10628 10625 10622 10618 10614 10611 10608 10603 10599 10596 10592 10587 10582 10577 10573 10569 10565 10561 10558 10554 10551 10548 10545 10542 10539 10536 10534 10532 10529 10526 10523 10520 10518 10516 10513 10510 10508 10505 10502 10499 10495 10492 10489 10485 10482 10479 10475 10471 10468 10464 10463 10461 10455 10449 10448 10449 10452 10450 10448 10447 10444 10439 10434 10428 10424 10420 10415 10411 10407 10403 10400
10664 10662 10661 10659 10657 10655 10653 10651 10649 10647 10644 10641 10638 10635 10632 10629 10626 10623 10619 10616 10612 10607 10604 10600 10596 10591 10588 10584 10580 10575 10570 10566 10562 10558 10555 10552 10548 10545 10542 10540 10537 10534 10531 10529 10527 10524 10520 10517 10514 10512 10510 10507 10504 10501 10498 10495 10491 10488 10484 10481 10478 10474 10471 10467 10464 10460 10456 10455 10452 10446 10442 10438 10438 10442 10440 10437 10436 10433 10427 10423 10418 10414 10410 10405 10401 10396 10393 10389
10661 10659 10658 10656 10654 10652 10650 10648 10645 10643 10640 10637 10634 10630 10627 10624 10620 10617 10613 10609 10606 10600 10596 10593 10589 10584 10580 10576 10572 10568 10564 10559 10555 10553 10549 10546 10543 10540 10537 10534 10532 10529 10526 10524 10521 10518 10514 10511 10508 10505 10503 10500 10497 10494 10491 10487 10483 10480 10476 10473 10469 10466 10462 10460 10457 10451 10447 10446 10443 10438 10435 10430 10428 10431 10429 10425 10424 10420 10414 10410 10406 10402 10399 10395 10390 10386 10382 10378
10658 10656 10654 10652 10651 10648 10646 10644 10641 10638 10635 10632 10629 10625 10622 10618 10615 10611 10607 10603 10599 10594 10589 10585 10581 10577 10573 10569 10565 10561 10558 10554 10550 10547 10545 10542 10538 10535 10532 10530 10527 10524 10521 10518 10515 10512 10509 10505 10502 10499 10496 10493 10490 10487 10483 10480 10475 10472 10468 10464 10461 10457 10454 10452 10449 10443 10439 10437 10434 10430 10426 10423 10421 10420 10416 10413 10412 10409 10403 10398 10394 10390 10388 10385 10380 10375 10371 10367
10655 10653 10651 10649 10647 10644 10642 10639 10636 10633 10630 10627 10624 10620 10617 10613 10609 10605 10601 10597 10593 10588 10583 10579 10574 10570 10567 10563 10559 10556 10553 10550 10546 10543 10540 10537 10534 10531 10528 10525 10522 10519 10516 10513 10510 10506 10502 10498 10495 10492 10490 10486 10483 10480 10476 10472 10468 10464 10460 10455 10452 10448 10445 10445 10441 10436 10432 10429 10426 10422 10417 10415 10414 10409 10404 10402 10400 10397 10392 10387 10383 10380 10377 10374 10370 10365 10360 10356
10651 10650 10648 10645 10643 10641 10638 10635 10632 10629 10626 10622 10619 10615 10611 10607 10603 10599 10595 10591 10587 10582 10577 10573 10569 10565 10561 10558 10555 10551 10548 10545 10541 10539 10535 10532 10529 10526 10522 10520 10517 10513 10510 10507 10504 10501 10496 10490 10487 10484 10482 10479 10475 10472 10468 10464 10460 10456 10452 10448 10444 10439 10436 10436 10433 10429 10424 10420 10418 10414 10409 10407 10405 10399 10394 10390 10387 10384 10381 10377 10373 10369 10365 10362 10359 10355 10350 10345
10648 10646 10644 10642 10639 10636 10633 10630 10627 10624 10620 10617 10613 10609 10605 10601 10597 10593 10589 10585 10581 10577 10572 10568 10564 10560 10557 10554 10550 10547 10544 10540 10537 10534 10530 10527 10524 10520 10517 10514 10511 10507 10504 10501 10497 10495 10490 10484 10480 10477 10473 10471 10467 10463 10459 10455 10451 10448 10443 10439 10435 10430 10426 10425 10423 10420 10416 10412 10410 10405 10399 10397 10394 10390 10385 10379 10375 10373 10370 10367 10363 10359 10355 10351 10348 10344 10339 10334
10644 10642 10640 10637 10635 10632 10628 10625 10622 10618 10615 10611 10607 10604 10600 10596 10592 10588 10583 10579 10575 10571 10568 10564 10560 10556 10553 10550 10546 10542 10539 10535 10532 10529 10525 10522 10518 10515 10511 10508 10504 10501 10497 10494 10490 10488 10484 10477 10473 10470 10467 10463 10459 10455 10450 10446 10442 10439 10435 10431 10427 10422 10418 10415 10413 10410 10406 10403 10401 10396 10390 10387 10382 10379 10375 10368 10364 10362 10358 10356 10353 10349 10344 10339 10336 10333 10328 10323
10641 10638 10636 10633 10630 10627 10624 10620 10617 10613 10609 10606 10602 10598 10594 10590 10586 10582 10578 10574 10570 10566 10563 10559 10556 10552 10548 10544 10541 10537 10534 10530 10527 10524 10520 10516 10512 10509 10505 10501 10498 10494 10490 10487 10483 10480 10477 10471 10465 10463 10461 10457 10452 10447 10443 10439 10434 10430 10427 10423 10419 10415 10410 10406 10404 10402 10397 10394 10392 10389 10383 10377 10372 10367 10364 10358 10353 10350 10347 10344 10342 10338 10333 10328 10323 10320 10316 10311
10637 10634 10632 10629 10626 10622 10619 10615 10612 10608 10604 10600 10597 10593 10589 10585 10581 10577 10573 10569 10565 10562 10558 10554 10550 10547 10543 10539 10535 10532 10528 10525 10521 10517 10514 10510 10506 10502 10498 10494 10491 10487 10483 10480 10476 10473 10470 10465 10457 10454 10454 10450 10444 10440 10436 10432 10428 10423 10419 10415 10412 10408 10404 10399 10395 10393 10389 10385 10383 10381 10376 10370 10363 10357 10352 10348 10344 10340 10337 10333 10330 10326 10321 10316 10311 10306 10302 10298
10633 10630 10627 10624 10621 10617 10614 10610 10607 10603 10599 10595 10591 10588 10584 10580 10576 10572 10568 10564 10561 10557 10553 10549 10546 10542 10538 10534 10530 10526 10522 10518 10515 10511 10507 10503 10499 10495 10491 10488 10484 10480 10476 10473 10470 10466 10463 10460 10452 10447 10446 10443 10437 10433 10429 10424 10420 10417 10412 10408 10404 10400 10396 10392 10388 10383 10380 10376 10373 10372 10369 10363 10355 10348 10343 10339 10336 10331 10326 10322 10318 10314 10309 10303 10297 10292 10287 10283
10630 10627 10623 10620 10616 10612 10609 10605 10602 10598 10594 10590 10586 10582 10578 10575 10571 10567 10563 10559 10556 10552 10548 10544 10540 10536 10533 10528 10524 10520 10516 10512 10508 10504 10500 10496 10493 10488 10484 10481 10477 10474 10470 10466 10463 10459 10456 10453 10447 10441 10439 10436 10431 10426 10422 10418 10413 10409 10405 10400 10396 10392 10388 10385 10380 10374 10369 10366 10362 10361 10361 10357 10346 10338 10334 10331 10326 10321 10316 10310 10305 10301 10296 10291 10285 10279 10274 10269
10625 10622 10619 10615 10611 10608 10604 10601 10597 10593 10589 10585 10581 10577 10573 10570 10566 10562 10558 10555 10551 10547 10543 10539 10535 10531 10527 10523 10518 10514 10510 10506 10502 10498 10494 10490 10486 10483 10479 10475 10471 10467 10464 10460 10457 10454 10450 10446 10442 10436 10432 10429 10424 10420 10416 10412 10407 10402 10397 10393 10388 10384 10380 10376 10373 10367 10359 10355 10350 10347 10349 10347 10335 10327 10324 10320 10314 10309 10304 10298 10293 10287 10283 10278 10272 10266 10261 10255
10621 10617 10614 10610 10607 10603 10600 10596 10592 10588 10584 10580 10576 10573 10569 10565 10561 10557 10553 10550 10546 10541 10537 10533 10529 10525 10521 10517 10513 10508 10504 10500 10496 10493 10489 10485 10480 10477 10473 10469 10465 10461 10458 10454 10450 10447 10444 10440 10435 10430 10426 10422 10417 10412 10409 10405 10400 10395 10389 10385 10380 10376 10371 10366 10363 10359 10352 10346 10339 10334 10335 10334 10325 10317 10313 10307 10301 10296 10291 10285 10279 10273 10269 10264 10258 10252 10245 10239
10616 10613 10609 10606 10602 10599 10595 10591 10587 10583 10580 10576 10572 10568 10564 10560 10556 10552 10548 10545 10540 10536 10532 10528 10524 10519 10515 10511 10507 10503 10499 10495 10491 10487 10483 10479 10475 10471 10468 10464 10460 10456 10452 10448 10444 10440 10437 10433 10429 10424 10419 10414 10410 10405 10401 10396 10392 10387 10381 10375 10371 10367 10362 10357 10352 10348 10344 10337 10330 10324 10322 10319 10313 10308 10302 10295 10289 10283 10277 10271 10264 10258 10254 10248 10241 10234 10228 10222
10611 10608 10605 10601 10598 10594 10590 10586 10582 10579 10575 10571 10567 10563 10559 10555 10551 10547 10544 10540 10535 10531 10527 10523 10518 10514 10510 10506 10502 10498 10494 10490 10486 10482 10478 10474 10470 10466 10462 10458 10454 10450 10446 10442 10437 10433 10430 10426 10423 10418 10412 10407 10402 10398 10393 10388 10383 10378 10373 10367 10362 10357 10353 10347 10342 10337 10333 10328 10320 10314 10310 10305 10300 10296 10290 10283 10276 10270 10263 10257 10250 10244 10239 10232 10224 10217 10210 10204
10607 10604 10600 10597 10593 10589 10586 10582 10578 10574 10570 10566 10562 10559 10555 10551 10547 10543 10538 10534 10530 10526 10522 10518 10514 10510 10505 10502 10497 10493 10489 10485 10482 10478 10473 10469 10465 10461 10457 10453 10448 10444 10440 10435 10431 10426 10422 10419 10415 10411 10406 10401 10396 10391 10386 10381 10375 10369 10364 10359 10353 10348 10343 10337 10332 10326 10321 10316 10309 10303 10297 10292 10287 10282 10276 10269 10262 10255 10248 10241 10234 10228 10222 10215 10208 10200 10193 10187
10603 10600 10596 10592 10589 10585 10581 10577 10574 10570 10566 10562 10558 10554 10550 10546 10542 10538 10534 10529 10525 10521 10517 10513 10509 10505 10501 10497 10493 10489 10485 10481 10477 10473 10469 10465 10461 10456 10452 10447 10443 10439 10434 10429 10424 10419 10415 10411 10407 10402 10397 10393 10388 10383 10379 10374 10368 10362 10356 10351 10345 10339 10333 10327 10321 10315 10308 10303 10296 10289 10284 10279 10273 10268 10261 10254 10247 10240 10233 10226 10218 10211 10204 10197 10189 10182 10175 10169
10599 10596 10592 10588 10585 10581 10577 10573 10569 10565 10562 10558 10554 10549 10545 10541 10537 10533 10529 10525 10521 10517 10513 10509 10505 10501 10497 10493 10489 10484 10480 10476 10472 10468 10464 10459 10455 10452 10447 10442 10437 10433 10427 10422 10417 10413 10408 10403 10399 10394 10388 10384 10379 10374 10369 10364 10359 10353 10348 10342 10336 10330 10323 10316 10310 10303 10296 10289 10283 10276 10269 10264 10259 10252 10245 10238 10231 10224 10216 10209 10201 10194 10187 10179 10171 10164 10157 10150
10595 10592 10588 10584 10580 10577 10573 10569 10565 10561 10557 10553 10549 10545 10541 10537 10533 10529 10525 10521 10517 10513 10509 10505 10501 10497 10493 10489 10485 10480 10475 10471 10466 10462 10458 10453 10448 10445 10441 10436 10431 10426 10421 10415 10410 10405 10401 10395 10390 10385 10379 10374 10370 10365 10359 10353 10348 10342 10337 10331 10326 10319 10312 10305 10298 10291 10284 10276 10269 10262 10256 10250 10244 10237 10229 10222 10215 10208 10201 10193 10185 10178 10171 10163 10156 10149 10141 10135
10591 10588 10584 10580 10576 10572 10569 10565 10561 10557 10553 10549 10545 10541 10537 10533 10530 10526 10522 10517 10513 10509 10505 10501 10497 10493 10489 10485 10481 10477 10472 10467 10461 10456 10451 10447 10442 10437 10433 10428 10423 10418 10413 10408 10402 10397 10392 10387 10381 10376 10370 10364 10359 10354 10348 10342 10336 10330 10324 10319 10313 10306 10299 10293 10286 10278 10270 10262 10254 10249 10243 10236 10229 10222 10214 10207 10200 10193 10185 10178 10170 10163 10156 10148 10140 10132 10125 10118
10587 10584 10580 10576 10572 10568 10564 10560 10557 10553 10549 10545 10542 10538 10534 10530 10526 10522 10518 10514 10510 10506 10502 10498 10493 10489 10485 10481 10477 10473 10468 10463 10458 10452 10446 10441 10436 10431 10426 10421 10415 10410 10404 10399 10394 10388 10383 10377 10372 10367 10361 10354 10349 10343 10337 10330 10323 10317 10311 10306 10300 10293 10286 10279 10272 10265 10256 10248 10240 10235 10228 10221 10214 10207 10199 10192 10184 10177 10169 10161 10153 10146 10138 10131 10123 10116 10109 10103
10584 10580 10576 10572 10568 10564 10561 10557 10553 10550 10546 10542 10538 10535 10531 10527 10523 10519 10515 10511 10507 10503 10498 10494 10490 10486 10482 10477 10473 10468 10463 10458 10453 10447 10441 10436 10430 10425 10419 10413 10407 10402 10396 10390 10384 10379 10373 10367 10362 10356 10351 10344 10338 10333 10326 10319 10312 10305 10298 10292 10286 10279 10273 10266 10259 10252 10243 10235 10229 10222 10215 10208 10201 10193 10185 10176 10168 10160 10153 10145 10138 10130 10122 10115 10108 10102 10095 10088
10580 10576 10573 10569 10565 10562 10558 10554 10551 10547 10543 10539 10536 10532 10528 10524 10520 10516 10512 10508 10504 10500 10496 10491 10487 10482 10478 10473 10469 10464 10458 10452 10446 10440 10434 10429 10423 10417 10411 10405 10399 10393 10387 10381 10375 10369 10363 10357 10350 10345 10339 10333 10327 10321 10314 10308 10301 10293 10286 10280 10273 10267 10260 10253 10246 10238 10229 10221 10216 10210 10202 10194 10187 10180 10172 10164 10155 10146 10138 10131 10124 10117 10109 10101 10094 10087 10081 10073